EN

Hourly Weather Paramonovo

Today, 5 March, Friday

Time Temperature Precipitation Wind Pressure Humidity
00:00 -5°C° 0 mm 4 mps 734 mmHg 93%
01:00 -5°C° 0 mm 3 mps 735 mmHg 93%
02:00 -6°C° 0 mm 3 mps 735 mmHg 94%
03:00 -7°C° 0 mm 3 mps 736 mmHg 94%
04:00 -8°C° 0 mm 3 mps 736 mmHg 95%
05:00 -7°C° 0 mm 2 mps 737 mmHg 95%
06:00 -7°C° 0 mm 2 mps 737 mmHg 95%
07:00 -7°C° 0 mm 2 mps 738 mmHg 95%
08:00 -7°C° 0 mm 2 mps 738 mmHg 94%
09:00 -6°C° 0 mm 2 mps 738 mmHg 92%
10:00 -5°C° 0 mm 2 mps 739 mmHg 91%
11:00 -4°C° 0 mm 2 mps 739 mmHg 89%
12:00 -3°C° 0.1 mm 2 mps 740 mmHg 86%
13:00 -3°C° 0.1 mm 2 mps 740 mmHg 84%
14:00 -2°C° 0.1 mm 2 mps 740 mmHg 82%
15:00 -3°C° 0 mm 2 mps 740 mmHg 83%
16:00 -4°C° 0 mm 2 mps 741 mmHg 84%
17:00 -5°C° 0 mm 2 mps 741 mmHg 85%
18:00 -6°C° 0 mm 2 mps 741 mmHg 86%
19:00 -7°C° 0 mm 2 mps 741 mmHg 87%
20:00 -8°C° 0 mm 2 mps 742 mmHg 88%
21:00 -8°C° 0 mm 2 mps 742 mmHg 88%
22:00 -9°C° 0 mm 2 mps 742 mmHg 88%
23:00 -8°C° 0 mm 1 mps 742 mmHg 89%

Tomorrow, 6 March, Saturday

Time Temperature Precipitation Wind Pressure Humidity
00:00 -9°C° 0 mm 2 mps 742 mmHg 90%
01:00 -9°C° 0 mm 2 mps 742 mmHg 91%
02:00 -10°C° 0 mm 2 mps 743 mmHg 93%
03:00 -10°C° 0 mm 2 mps 742 mmHg 94%
04:00 -12°C° 0 mm 2 mps 742 mmHg 94%
05:00 -12°C° 0 mm 2 mps 742 mmHg 95%
06:00 -10°C° 0 mm 2 mps 743 mmHg 95%
07:00 -12°C° 0 mm 3 mps 743 mmHg 94%
08:00 -10°C° 0 mm 3 mps 743 mmHg 94%
09:00 -10°C° 0 mm 4 mps 743 mmHg 90%
10:00 -10°C° 0 mm 5 mps 744 mmHg 86%
11:00 -8°C° 0 mm 5 mps 744 mmHg 82%
12:00 -7°C° 0 mm 5 mps 744 mmHg 80%
13:00 -7°C° 0 mm 4 mps 744 mmHg 78%
14:00 -7°C° 0 mm 4 mps 744 mmHg 75%
15:00 -7°C° 0 mm 3 mps 744 mmHg 77%
16:00 -8°C° 0 mm 3 mps 744 mmHg 79%
17:00 -8°C° 0 mm 2 mps 744 mmHg 80%
18:00 -10°C° 0 mm 3 mps 744 mmHg 82%
19:00 -10°C° 0 mm 3 mps 745 mmHg 83%
20:00 -12°C° 0 mm 3 mps 745 mmHg 85%
21:00 -12°C° 0 mm 3 mps 745 mmHg 86%
22:00 -13°C° 0 mm 3 mps 744 mmHg 88%
23:00 -13°C° 0 mm 3 mps 744 mmHg 89%

Day after tomorrow, 7 March, Sunday

Time Temperature Precipitation Wind Pressure Humidity
00:00 -14°C° 0 mm 4 mps 744 mmHg 89%
01:00 -14°C° 0 mm 4 mps 743 mmHg 89%
02:00 -14°C° 0 mm 5 mps 743 mmHg 89%
03:00 -13°C° 0 mm 5 mps 742 mmHg 87%
04:00 -14°C° 0 mm 6 mps 741 mmHg 86%
05:00 -13°C° 0 mm 7 mps 741 mmHg 84%
06:00 -12°C° 0 mm 7 mps 740 mmHg 83%
07:00 -12°C° 0 mm 8 mps 739 mmHg 82%
08:00 -11°C° 0 mm 9 mps 738 mmHg 81%
09:00 -10°C° 0.1 mm 9 mps 736 mmHg 84%
10:00 -9°C° 0.1 mm 10 mps 735 mmHg 88%
11:00 -8°C° 0.1 mm 11 mps 734 mmHg 91%
12:00 -8°C° 0.3 mm 11 mps 733 mmHg 91%
13:00 -7°C° 0.3 mm 11 mps 733 mmHg 91%
14:00 -6°C° 0.3 mm 11 mps 732 mmHg 91%
15:00 -6°C° 0.5 mm 9 mps 733 mmHg 83%
16:00 -8°C° 0.5 mm 7 mps 733 mmHg 74%
17:00 -9°C° 0.5 mm 6 mps 733 mmHg 66%
18:00 -10°C° 0 mm 5 mps 734 mmHg 68%
19:00 -11°C° 0 mm 5 mps 734 mmHg 71%
20:00 -12°C° 0 mm 4 mps 735 mmHg 74%
21:00 -13°C° 0 mm 5 mps 734 mmHg 76%
22:00 -13°C° 0 mm 5 mps 734 mmHg 78%
23:00 -13°C° 0 mm 5 mps 733 mmHg 80%

8 March, Monday

Time Temperature Precipitation Wind Pressure Humidity
00:00 -12°C° 0 mm 6 mps 733 mmHg 81%
01:00 -11°C° 0 mm 6 mps 733 mmHg 82%
02:00 -10°C° 0 mm 6 mps 732 mmHg 84%
03:00 -10°C° 0 mm 6 mps 732 mmHg 84%
04:00 -10°C° 0 mm 6 mps 732 mmHg 85%
05:00 -10°C° 0 mm 6 mps 732 mmHg 86%
06:00 -11°C° 0 mm 6 mps 732 mmHg 83%
07:00 -11°C° 0 mm 6 mps 733 mmHg 80%
08:00 -12°C° 0 mm 6 mps 734 mmHg 78%
09:00 -12°C° 0 mm 6 mps 734 mmHg 75%
10:00 -11°C° 0 mm 6 mps 735 mmHg 73%
11:00 -11°C° 0 mm 6 mps 736 mmHg 70%
12:00 -11°C° 0 mm 5 mps 737 mmHg 71%
13:00 -10°C° 0 mm 5 mps 737 mmHg 71%
14:00 -10°C° 0 mm 5 mps 738 mmHg 72%
15:00 -10°C° 0 mm 4 mps 738 mmHg 74%
16:00 -11°C° 0 mm 4 mps 738 mmHg 77%
17:00 -12°C° 0 mm 3 mps 738 mmHg 79%
18:00 -12°C° 0 mm 3 mps 738 mmHg 81%
19:00 -13°C° 0 mm 3 mps 739 mmHg 83%
20:00 -13°C° 0 mm 2 mps 739 mmHg 85%
21:00 -13°C° 0 mm 2 mps 739 mmHg 87%
22:00 -14°C° 0 mm 2 mps 739 mmHg 89%
23:00 -14°C° 0 mm 2 mps 740 mmHg 91%

9 March, Tuesday

Time Temperature Precipitation Wind Pressure Humidity
00:00 -14°C° 0 mm 2 mps 740 mmHg 92%
01:00 -14°C° 0 mm 2 mps 740 mmHg 93%
02:00 -14°C° 0 mm 2 mps 740 mmHg 94%
03:00 -14°C° 0 mm 2 mps 740 mmHg 94%
04:00 -13°C° 0 mm 2 mps 740 mmHg 95%
05:00 -13°C° 0 mm 2 mps 740 mmHg 95%
06:00 -13°C° 0 mm 2 mps 741 mmHg 94%
07:00 -14°C° 0 mm 3 mps 741 mmHg 93%
08:00 -13°C° 0 mm 3 mps 742 mmHg 92%
09:00 -14°C° 0 mm 4 mps 742 mmHg 89%
10:00 -14°C° 0 mm 4 mps 743 mmHg 87%
11:00 -14°C° 0 mm 4 mps 743 mmHg 84%
12:00 -14°C° 0 mm 4 mps 743 mmHg 83%
13:00 -14°C° 0 mm 4 mps 744 mmHg 82%
14:00 -12°C° 0 mm 4 mps 744 mmHg 81%
15:00 -14°C° 0 mm 4 mps 745 mmHg 83%
16:00 -14°C° 0 mm 3 mps 745 mmHg 84%
17:00 -15°C° 0 mm 3 mps 745 mmHg 86%
18:00 -15°C° 0 mm 2 mps 746 mmHg 86%
19:00 -16°C° 0 mm 2 mps 747 mmHg 87%
20:00 -17°C° 0 mm 2 mps 747 mmHg 88%
21:00 -17°C° 0 mm 2 mps 747 mmHg 89%
22:00 -17°C° 0 mm 2 mps 748 mmHg 90%
23:00 -18°C° 0 mm 2 mps 748 mmHg 91%

10 March, Wednesday

Time Temperature Precipitation Wind Pressure Humidity
00:00 -18°C° 0 mm 2 mps 748 mmHg 91%
01:00 -18°C° 0 mm 2 mps 748 mmHg 91%
02:00 -18°C° 0 mm 2 mps 748 mmHg 92%
03:00 -18°C° 0 mm 3 mps 748 mmHg 91%
04:00 -18°C° 0 mm 3 mps 747 mmHg 91%
05:00 -19°C° 0 mm 4 mps 747 mmHg 91%
06:00 -18°C° 0 mm 4 mps 747 mmHg 88%
07:00 -18°C° 0 mm 5 mps 747 mmHg 86%
08:00 -15°C° 0 mm 5 mps 747 mmHg 83%
09:00 -15°C° 0 mm 6 mps 747 mmHg 81%
10:00 -12°C° 0 mm 6 mps 746 mmHg 79%
11:00 -11°C° 0 mm 6 mps 746 mmHg 76%
12:00 -10°C° 0 mm 6 mps 746 mmHg 75%
13:00 -9°C° 0 mm 6 mps 746 mmHg 74%
14:00 -9°C° 0 mm 6 mps 745 mmHg 73%
15:00 -8°C° 0 mm 5 mps 745 mmHg 76%
16:00 -10°C° 0 mm 5 mps 745 mmHg 78%
17:00 -9°C° 0 mm 4 mps 745 mmHg 81%
18:00 -10°C° 0 mm 4 mps 745 mmHg 83%
19:00 -11°C° 0 mm 4 mps 745 mmHg 85%
20:00 -11°C° 0 mm 4 mps 745 mmHg 87%
21:00 -12°C° 0 mm 3 mps 745 mmHg 88%
22:00 -12°C° 0 mm 3 mps 745 mmHg 89%
23:00 -12°C° 0 mm 3 mps 745 mmHg 89%
Show more

We Need Your Consent

Meteoprog and our Service Providers may store and access personal data such as cookies, device identifiers or other similar technologies on your device and process such data to personalise content and ads, as well as provide social media features and to analyse the traffic.

  • Store and/or access information on your device

    Cookies, device identifiers or other information can be stored or accessed on your device for the purposes indicated above.

  • Personalised ads and content, ad and content measurement, audience insights, and products development

    Ads and content can be personalised based on a profile. More data can be added to better personalise ads and content. Ad and content performance can be measured. Insights about the audience who saw the ads and content can be derived. Such data can be used to develop or improve user’s experience, systems and software.

By clicking ‘I Agree’ you will allow the use of indicated cookies, device identifiers, web beacons or other similar technologies. Your settings can be changed in the browser on your device.

For certain purposes, legitimate interests may be relied on, rather than consent. You can read more about this in our Privacy and Cookie Policy.